User: anonymous   Login
Location: ??????
(55.6500°N, 37.8000°E)
Time: 22:37:38
(UTC+00:00)
Language:

Envisat - Orbit

View from above orbital plane
View from above orbital plane
View from above satellite
View from above satellite

Ground track
Ground track

The orbit data is extracted from the following two-line orbital elements,

1 27386U 02009A   24168.87852584  .00000217  00000-0  84699-4 0  9995
2 27386  98.2820 129.9775 0001350  91.6867 295.5486 14.38590858168468
Epoch (UTC): 16 June 2024 21:05:04
Eccentricity: 0.0001350
inclination: 98.2820°
perigee height: 762 km
apogee height: 764 km
right ascension of ascending node: 129.9775°
argument of perigee: 91.6867°
revolutions per day: 14.38590858
mean anomaly at epoch: 295.5486°
orbit number at epoch: 16846

The dashed part of the orbit path shows where the satellite is in the earth's shadow,  

DLR